St. Cloud, MN

12:12 PM CDT on September 25, 2017 (GMT -0500)
Saint Cloud Regional

Weather History for KSTC - September, 2013

Change the Weather History Date:

Saturday, September 7, 2013

  Actual Average Record
Temperature  
Mean Temperature 78 °F 62 °F  
Max Temperature 92 °F 74 °F 98 °F (1978)
Min Temperature 64 °F 51 °F 35 °F (1956)
Degree Days  
Heating Degree Days 0 5  
Month to date heating degree days 15 27  
Since 1 July heating degree days 64 85  
Cooling Degree Days 13 2  
Month to date cooling degree days 36 14  
Year to date cooling degree days 540 443  
Growing Degree Days 28 (Base 50)    
Moisture  
Dew Point 65 °F    
Average Humidity 71    
Maximum Humidity 100    
Minimum Humidity 41    
Precipitation  
Precipitation 0.00 in 0.13 in 2.23 in (1991)
Month to date precipitation 0.00 0.93  
Year to date precipitation 20.33 20.51  
Snow  
Snow 0.00 in 0.00 in 0.00 in ()
Month to date snowfall 0.0 0.0  
Since 1 July snowfall 0.0 0.0  
Since 1 September snowfall 0.0 0.0  
Snow Depth 0.00 in    
Sea Level Pressure  
Sea Level Pressure 29.94 in    
Wind  
Wind Speed 6 mph (NE)    
Max Wind Speed 18 mph    
Max Gust Speed 24 mph    
Visibility 9 miles    
Events      
T = Trace of Precipitation, MM = Missing Value Source: NWS Daily Summary

Daily Weather History Graph

Daily Weather History Graph

Search for Another Location

Airport or City:

Trip Planner

Search our weather history database for the weather conditions in past years. The results will help you decide how hot, cold, wet, or windy it might be!

Date:

Astronomy

Sep. 07, 2013 Rise Set
Actual Time 6:45 AM CDT 7:42 PM CDT
Civil Twilight 6:14 AM CDT 8:12 PM CDT
Nautical Twilight 5:38 AM CDT 8:48 PM CDT
Astronomical Twilight 5:00 AM CDT 9:26 PM CDT
Moon 9:09 AM CDT (9/7) 8:30 PM CDT (9/7)
Length of Visible Light 13h 57m
Length of Day
12h 56m
Waxing Crescent, 5% of the Moon is Illuminated
Sep 7
Waxing Crescent
Sep 12
First Quarter
Sep 19
Full
Sep 26
Last Quarter
Oct 4
New

Hourly Weather History & Observations

Time (CDT) Temp. Heat Index Dew Point Humidity Pressure Visibility Wind Dir Wind Speed Gust Speed Precip Events Conditions
12:53 AM 71.1 °F - 66.9 °F 87% 29.88 in 10.0 mi Calm Calm - N/A   Clear
1:53 AM 69.1 °F - 66.0 °F 90% 29.87 in 10.0 mi Calm Calm - N/A   Clear
2:53 AM 68.0 °F - 64.9 °F 90% 29.87 in 10.0 mi Calm Calm - N/A   Clear
3:53 AM 66.0 °F - 66.0 °F 100% 29.87 in 7.0 mi Calm Calm - N/A   Clear
4:53 AM 66.0 °F - 64.9 °F 96% 29.87 in 4.0 mi Calm Calm - N/A   Clear
5:53 AM 64.9 °F - 63.0 °F 93% 29.89 in 3.0 mi Calm Calm - N/A   Clear
6:53 AM 64.9 °F - 64.0 °F 97% 29.91 in 4.0 mi Calm Calm - N/A   Clear
7:53 AM 70.0 °F - 66.0 °F 87% 29.92 in 7.0 mi Calm Calm - N/A   Clear
8:53 AM 75.0 °F - 68.0 °F 79% 29.93 in 10.0 mi North 6.9 mph - N/A   Clear
9:53 AM 82.0 °F 84.9 °F 68.0 °F 62% 29.94 in 10.0 mi NNE 12.7 mph - N/A   Clear
10:53 AM 84.9 °F 88.2 °F 68.0 °F 57% 29.95 in 10.0 mi NE 9.2 mph - N/A   Clear
11:53 AM 88.0 °F 90.3 °F 66.0 °F 48% 29.95 in 10.0 mi Variable 6.9 mph - N/A   Clear
12:53 PM 89.1 °F 91.0 °F 64.9 °F 45% 29.95 in 10.0 mi East 11.5 mph - N/A   Clear
1:53 PM 90.0 °F 91.7 °F 64.9 °F 43% 29.94 in 10.0 mi NE 8.1 mph - N/A   Scattered Clouds
2:53 PM 91.0 °F 92.6 °F 64.0 °F 41% 29.94 in 10.0 mi NNE 5.8 mph - N/A   Partly Cloudy
3:53 PM 88.0 °F 89.6 °F 64.9 °F 46% 29.94 in 10.0 mi North 9.2 mph 18.4 mph N/A   Partly Cloudy
4:53 PM 90.0 °F 91.3 °F 64.0 °F 42% 29.94 in 10.0 mi NNE 6.9 mph - N/A   Partly Cloudy
5:53 PM 84.9 °F 87.6 °F 66.9 °F 55% 29.96 in 10.0 mi NNE 6.9 mph - N/A   Clear
6:53 PM 82.9 °F 85.4 °F 66.9 °F 58% 29.98 in 10.0 mi NNE 5.8 mph - N/A   Mostly Cloudy
7:53 PM 81.0 °F 83.3 °F 66.9 °F 62% 29.99 in 10.0 mi NNE 4.6 mph - N/A   Scattered Clouds
8:53 PM 78.1 °F - 66.9 °F 68% 30.01 in 10.0 mi ENE 11.5 mph 20.7 mph N/A   Partly Cloudy
9:53 PM 73.0 °F - 61.0 °F 66% 30.02 in 10.0 mi ENE 12.7 mph 23.0 mph N/A   Clear
10:53 PM 69.1 °F - 57.0 °F 65% 30.06 in 10.0 mi East 10.4 mph 17.3 mph N/A   Clear
11:53 PM 66.9 °F - 55.0 °F 66% 30.06 in 10.0 mi ENE 9.2 mph 18.4 mph N/A   Clear